Time,TemperatureF,DewpointF,PressureIn,WindDirection,WindDirectionDegrees,WindSpeedMPH,WindSpeedGustMPH,Humidity,HourlyPrecipIn,Conditions,Clouds,dailyrainin,SoftwareType,DateUTC
2013-01-20 00:00:00,29.0,28.3,29.48,NE,45,0.0,7.0,97,0.00,,,0.00,Weather View 32 v70,2013-01-20 05:00:00,
2013-01-20 00:01:00,29.0,28.3,29.48,NNE,22,0.0,7.0,97,0.00,,,0.00,Weather View 32 v70,2013-01-20 05:01:00,
2013-01-20 00:03:00,29.0,28.3,29.48,ENE,67,1.0,7.0,97,0.00,,,0.00,Weather View 32 v70,2013-01-20 05:03:00,
2013-01-20 00:08:00,29.0,28.3,29.48,North,360,4.0,7.0,97,0.00,,,0.00,Weather View 32 v70,2013-01-20 05:08:00,
2013-01-20 00:13:00,29.0,28.3,29.48,NW,315,1.0,7.0,97,0.00,,,0.00,Weather View 32 v70,2013-01-20 05:13:00,
2013-01-20 00:18:00,29.0,28.3,29.48,North,360,1.0,7.0,97,0.00,,,0.00,Weather View 32 v70,2013-01-20 05:18:00,
2013-01-20 00:23:00,29.0,28.3,29.48,NW,315,3.0,6.0,97,0.00,,,0.00,Weather View 32 v70,2013-01-20 05:23:00,
2013-01-20 00:28:00,29.0,28.3,29.48,North,360,3.0,5.0,97,0.00,,,0.00,Weather View 32 v70,2013-01-20 05:28:00,
2013-01-20 00:33:00,28.0,27.3,29.47,NNE,22,5.0,6.0,97,0.00,,,0.00,Weather View 32 v70,2013-01-20 05:33:00,
2013-01-20 00:38:00,28.0,27.5,29.46,NNW,337,3.0,6.0,98,0.00,,,0.00,Weather View 32 v70,2013-01-20 05:38:00,
2013-01-20 00:43:00,28.0,27.5,29.46,NNE,22,2.0,6.0,98,0.00,,,0.00,Weather View 32 v70,2013-01-20 05:43:00,
2013-01-20 00:48:00,28.0,27.5,29.46,North,360,3.0,6.0,98,0.00,,,0.00,Weather View 32 v70,2013-01-20 05:48:00,
2013-01-20 00:53:00,28.0,27.5,29.45,North,360,4.0,6.0,98,0.00,,,0.00,Weather View 32 v70,2013-01-20 05:53:00,
2013-01-20 00:58:00,28.0,27.5,29.46,NNE,22,1.0,6.0,98,0.00,,,0.00,Weather View 32 v70,2013-01-20 05:58:00,
2013-01-20 01:03:00,28.0,27.5,29.45,WNW,292,0.0,6.0,98,0.00,,,0.00,Weather View 32 v70,2013-01-20 06:03:00,
2013-01-20 01:08:00,28.0,27.5,29.46,NNE,22,3.0,6.0,98,0.00,,,0.00,Weather View 32 v70,2013-01-20 06:08:00,
2013-01-20 01:13:00,28.0,27.5,29.45,NNW,337,2.0,6.0,98,0.00,,,0.00,Weather View 32 v70,2013-01-20 06:13:00,
2013-01-20 01:18:00,28.0,27.5,29.45,West,270,1.0,6.0,98,0.00,,,0.00,Weather View 32 v70,2013-01-20 06:18:00,
2013-01-20 01:23:00,28.0,27.5,29.46,NNW,337,0.0,6.0,98,0.00,,,0.00,Weather View 32 v70,2013-01-20 06:23:00,
2013-01-20 01:28:00,28.0,27.5,29.45,North,360,3.0,6.0,98,0.00,,,0.00,Weather View 32 v70,2013-01-20 06:28:00,
2013-01-20 01:33:00,28.0,27.5,29.45,NNE,22,1.0,5.0,98,0.00,,,0.00,Weather View 32 v70,2013-01-20 06:33:00,
2013-01-20 01:38:00,29.0,28.5,29.45,NNE,22,0.0,5.0,98,0.00,,,0.00,Weather View 32 v70,2013-01-20 06:38:00,
2013-01-20 01:43:00,29.0,28.5,29.44,NNE,22,0.0,5.0,98,0.00,,,0.00,Weather View 32 v70,2013-01-20 06:43:00,
2013-01-20 01:48:00,29.0,28.5,29.45,NNE,22,0.0,5.0,98,0.00,,,0.00,Weather View 32 v70,2013-01-20 06:48:00,
2013-01-20 01:53:00,29.0,28.5,29.45,NNE,22,0.0,5.0,98,0.00,,,0.00,Weather View 32 v70,2013-01-20 06:53:00,
2013-01-20 01:58:00,29.0,28.5,29.45,NW,315,3.0,5.0,98,0.00,,,0.00,Weather View 32 v70,2013-01-20 06:58:00,
2013-01-20 02:03:00,29.0,28.5,29.45,NW,315,3.0,5.0,98,0.00,,,0.00,Weather View 32 v70,2013-01-20 07:03:00,
2013-01-20 02:08:00,30.0,29.5,29.45,NW,315,0.0,5.0,98,0.00,,,0.00,Weather View 32 v70,2013-01-20 07:08:00,
2013-01-20 02:13:00,30.0,29.5,29.46,NW,315,0.0,5.0,98,0.00,,,0.00,Weather View 32 v70,2013-01-20 07:13:00,
2013-01-20 02:18:00,30.0,29.3,29.45,WNW,292,0.0,5.0,97,0.00,,,0.00,Weather View 32 v70,2013-01-20 07:18:00,
2013-01-20 02:23:00,30.0,29.3,29.45,NW,315,2.0,5.0,97,0.00,,,0.00,Weather View 32 v70,2013-01-20 07:23:00,
2013-01-20 02:28:00,30.0,29.3,29.44,WNW,292,2.0,5.0,97,0.00,,,0.00,Weather View 32 v70,2013-01-20 07:28:00,
2013-01-20 02:33:00,31.0,30.0,29.44,WNW,292,2.0,4.0,96,0.00,,,0.00,Weather View 32 v70,2013-01-20 07:33:00,
2013-01-20 02:38:00,31.0,30.0,29.44,West,270,4.0,4.0,96,0.00,,,0.00,Weather View 32 v70,2013-01-20 07:38:00,
2013-01-20 02:43:00,31.0,30.0,29.45,West,270,1.0,5.0,96,0.00,,,0.00,Weather View 32 v70,2013-01-20 07:43:00,
2013-01-20 02:48:00,31.0,30.0,29.45,West,270,1.0,5.0,96,0.00,,,0.00,Weather View 32 v70,2013-01-20 07:48:00,
2013-01-20 02:53:00,32.0,31.0,29.44,SSE,157,0.0,6.0,96,0.00,,,0.00,Weather View 32 v70,2013-01-20 07:53:00,
2013-01-20 02:58:00,32.0,31.0,29.44,South,180,3.0,6.0,96,0.00,,,0.00,Weather View 32 v70,2013-01-20 07:58:00,
2013-01-20 03:03:00,32.0,31.0,29.41,SSW,202,1.0,6.0,96,0.00,,,0.00,Weather View 32 v70,2013-01-20 08:03:00,
2013-01-20 03:08:00,32.0,31.0,29.41,SE,135,1.0,6.0,96,0.00,,,0.00,Weather View 32 v70,2013-01-20 08:08:00,
2013-01-20 03:13:00,33.0,32.0,29.41,SE,135,0.0,6.0,96,0.00,,,0.00,Weather View 32 v70,2013-01-20 08:13:00,
2013-01-20 03:18:00,33.0,32.0,29.41,WNW,292,0.0,6.0,96,0.00,,,0.00,Weather View 32 v70,2013-01-20 08:18:00,
2013-01-20 03:23:00,33.0,32.0,29.41,WNW,292,0.0,6.0,96,0.00,,,0.00,Weather View 32 v70,2013-01-20 08:23:00,
2013-01-20 03:28:00,33.0,32.0,29.40,SE,135,6.0,6.0,96,0.00,,,0.00,Weather View 32 v70,2013-01-20 08:28:00,
2013-01-20 03:33:00,33.0,32.0,29.40,SSE,157,0.0,6.0,96,0.00,,,0.00,Weather View 32 v70,2013-01-20 08:33:00,
2013-01-20 03:38:00,33.0,32.2,29.41,SE,135,0.0,6.0,97,0.00,,,0.00,Weather View 32 v70,2013-01-20 08:38:00,
2013-01-20 03:43:00,33.0,32.0,29.40,ESE,112,2.0,6.0,96,0.00,,,0.00,Weather View 32 v70,2013-01-20 08:43:00,
2013-01-20 03:48:00,33.0,32.2,29.39,SW,225,0.0,6.0,97,0.00,,,0.00,Weather View 32 v70,2013-01-20 08:48:00,
2013-01-20 03:53:00,33.0,32.2,29.39,WSW,247,0.0,6.0,97,0.00,,,0.00,Weather View 32 v70,2013-01-20 08:53:00,
2013-01-20 03:58:00,33.0,32.0,29.38,South,180,0.0,6.0,96,0.00,,,0.00,Weather View 32 v70,2013-01-20 08:58:00,
2013-01-20 04:03:00,33.0,32.2,29.38,SSE,157,0.0,6.0,97,0.00,,,0.00,Weather View 32 v70,2013-01-20 09:03:00,
2013-01-20 04:08:00,33.0,32.2,29.38,WSW,247,2.0,6.0,97,0.00,,,0.00,Weather View 32 v70,2013-01-20 09:08:00,
2013-01-20 04:13:00,33.0,32.2,29.37,WSW,247,2.0,6.0,97,0.00,,,0.00,Weather View 32 v70,2013-01-20 09:13:00,
2013-01-20 04:18:00,33.0,32.2,29.37,NNW,337,1.0,6.0,97,0.00,,,0.00,Weather View 32 v70,2013-01-20 09:18:00,
2013-01-20 04:23:00,33.0,32.5,29.37,ENE,67,4.0,6.0,98,0.00,,,0.00,Weather View 32 v70,2013-01-20 09:23:00,
2013-01-20 04:28:00,33.0,32.2,29.37,NE,45,0.0,6.0,97,0.00,,,0.00,Weather View 32 v70,2013-01-20 09:28:00,
2013-01-20 04:33:00,33.0,32.7,29.36,West,270,3.0,6.0,99,0.00,,,0.00,Weather View 32 v70,2013-01-20 09:33:00,
2013-01-20 04:38:00,33.0,32.5,29.35,ESE,112,2.0,6.0,98,0.00,,,0.00,Weather View 32 v70,2013-01-20 09:38:00,
2013-01-20 04:43:00,33.0,32.5,29.35,ESE,112,0.0,6.0,98,0.00,,,0.00,Weather View 32 v70,2013-01-20 09:43:00,
2013-01-20 04:48:00,32.0,31.2,29.35,ESE,112,0.0,6.0,97,0.00,,,0.00,Weather View 32 v70,2013-01-20 09:48:00,
2013-01-20 04:53:00,32.0,31.8,29.35,East,90,3.0,6.0,99,0.00,,,0.00,Weather View 32 v70,2013-01-20 09:53:00,
2013-01-20 04:58:00,32.0,31.8,29.34,NE,45,1.0,6.0,99,0.00,,,0.00,Weather View 32 v70,2013-01-20 09:58:00,
2013-01-20 05:03:00,32.0,31.8,29.33,NE,45,0.0,6.0,99,0.00,,,0.00,Weather View 32 v70,2013-01-20 10:03:00,
2013-01-20 05:08:00,31.0,30.8,29.33,NE,45,2.0,6.0,99,0.00,,,0.00,Weather View 32 v70,2013-01-20 10:08:00,
2013-01-20 05:13:00,31.0,30.8,29.33,NE,45,3.0,6.0,99,0.00,,,0.00,Weather View 32 v70,2013-01-20 10:13:00,
2013-01-20 05:18:00,31.0,30.8,29.33,ESE,112,4.0,6.0,99,0.00,,,0.00,Weather View 32 v70,2013-01-20 10:18:00,
2013-01-20 05:23:00,30.0,30.0,29.33,NE,45,2.0,7.0,100,0.00,,,0.00,Weather View 32 v70,2013-01-20 10:23:00,
2013-01-20 05:28:00,30.0,30.0,29.30,North,360,2.0,7.0,100,0.00,,,0.00,Weather View 32 v70,2013-01-20 10:28:00,
2013-01-20 05:33:00,30.0,30.0,29.30,North,360,0.0,7.0,100,0.00,,,0.00,Weather View 32 v70,2013-01-20 10:33:00,
2013-01-20 05:38:00,30.0,30.0,29.30,North,360,1.0,7.0,100,0.00,,,0.00,Weather View 32 v70,2013-01-20 10:38:00,
2013-01-20 05:43:00,30.0,30.0,29.30,North,360,0.0,7.0,100,0.00,,,0.00,Weather View 32 v70,2013-01-20 10:43:00,
2013-01-20 05:48:00,30.0,30.0,29.29,SSW,202,3.0,7.0,100,0.00,,,0.00,Weather View 32 v70,2013-01-20 10:48:00,
2013-01-20 05:53:00,31.0,31.0,29.28,SW,225,0.0,7.0,100,0.00,,,0.00,Weather View 32 v70,2013-01-20 10:53:00,
2013-01-20 05:58:00,30.0,30.0,29.27,SW,225,1.0,7.0,100,0.00,,,0.00,Weather View 32 v70,2013-01-20 10:58:00,
2013-01-20 06:03:00,30.0,30.0,29.24,NNW,337,3.0,7.0,100,0.00,,,0.00,Weather View 32 v70,2013-01-20 11:03:00,
2013-01-20 06:08:00,31.0,31.0,29.27,North,360,2.0,7.0,100,0.00,,,0.00,Weather View 32 v70,2013-01-20 11:08:00,
2013-01-20 06:13:00,31.0,31.0,29.27,North,360,1.0,9.0,100,0.00,,,0.00,Weather View 32 v70,2013-01-20 11:13:00,
2013-01-20 06:18:00,31.0,31.0,29.27,NE,45,1.0,9.0,100,0.00,,,0.00,Weather View 32 v70,2013-01-20 11:18:00,
2013-01-20 06:23:00,31.0,31.0,29.26,NE,45,0.0,9.0,100,0.00,,,0.00,Weather View 32 v70,2013-01-20 11:23:00,
2013-01-20 06:28:00,31.0,31.0,29.26,NNE,22,3.0,9.0,100,0.00,,,0.00,Weather View 32 v70,2013-01-20 11:28:00,
2013-01-20 06:33:00,30.0,30.0,29.26,North,360,2.0,9.0,100,0.00,,,0.00,Weather View 32 v70,2013-01-20 11:33:00,
2013-01-20 06:38:00,30.0,30.0,29.25,North,360,3.0,9.0,100,0.00,,,0.00,Weather View 32 v70,2013-01-20 11:38:00,
2013-01-20 06:43:00,30.0,30.0,29.25,North,360,2.0,9.0,100,0.00,,,0.00,Weather View 32 v70,2013-01-20 11:43:00,
2013-01-20 06:48:00,30.0,30.0,29.24,North,360,0.0,9.0,100,0.00,,,0.00,Weather View 32 v70,2013-01-20 11:48:00,
2013-01-20 06:53:00,30.0,30.0,29.24,North,360,0.0,9.0,100,0.00,,,0.00,Weather View 32 v70,2013-01-20 11:53:00,
2013-01-20 06:58:00,30.0,30.0,29.23,North,360,0.0,9.0,100,0.00,,,0.00,Weather View 32 v70,2013-01-20 11:58:00,
2013-01-20 07:03:00,30.0,30.0,29.22,North,360,0.0,9.0,100,0.00,,,0.00,Weather View 32 v70,2013-01-20 12:03:00,
2013-01-20 07:08:00,30.0,30.0,29.22,SE,135,0.0,9.0,100,0.00,,,0.00,Weather View 32 v70,2013-01-20 12:08:00,
2013-01-20 07:13:00,30.0,30.0,29.21,SE,135,0.0,7.0,100,0.00,,,0.00,Weather View 32 v70,2013-01-20 12:13:00,
2013-01-20 07:18:00,30.0,30.0,29.20,SE,135,0.0,7.0,100,0.00,,,0.00,Weather View 32 v70,2013-01-20 12:18:00,
2013-01-20 07:23:00,29.0,29.0,29.20,SE,135,0.0,7.0,100,0.00,,,0.00,Weather View 32 v70,2013-01-20 12:23:00,
2013-01-20 07:28:00,29.0,29.0,29.19,SE,135,0.0,7.0,100,0.00,,,0.00,Weather View 32 v70,2013-01-20 12:28:00,
2013-01-20 07:33:00,29.0,29.0,29.19,SE,135,0.0,4.0,100,0.00,,,0.00,Weather View 32 v70,2013-01-20 12:33:00,
2013-01-20 07:38:00,30.0,30.0,29.19,SE,135,0.0,4.0,100,0.00,,,0.00,Weather View 32 v70,2013-01-20 12:38:00,
2013-01-20 07:43:00,30.0,30.0,29.21,SE,135,0.0,3.0,100,0.00,,,0.00,Weather View 32 v70,2013-01-20 12:43:00,
2013-01-20 07:48:00,31.0,31.0,29.21,SE,135,3.0,3.0,100,0.00,,,0.00,Weather View 32 v70,2013-01-20 12:48:00,
2013-01-20 07:53:00,31.0,31.0,29.21,SE,135,0.0,4.0,100,0.00,,,0.00,Weather View 32 v70,2013-01-20 12:53:00,
2013-01-20 07:58:00,32.0,32.0,29.19,SE,135,0.0,4.0,100,0.00,,,0.00,Weather View 32 v70,2013-01-20 12:58:00,
2013-01-20 08:03:00,32.0,32.0,29.20,SE,135,2.0,4.0,100,0.00,,,0.00,Weather View 32 v70,2013-01-20 13:03:00,
2013-01-20 08:08:00,34.0,34.0,29.19,SSE,157,4.0,6.0,100,0.00,,,0.00,Weather View 32 v70,2013-01-20 13:08:00,
2013-01-20 08:13:00,35.0,35.0,29.19,SSE,157,0.0,6.0,100,0.00,,,0.00,Weather View 32 v70,2013-01-20 13:13:00,
2013-01-20 08:18:00,35.0,35.0,29.18,SSE,157,0.0,6.0,100,0.00,,,0.00,Weather View 32 v70,2013-01-20 13:18:00,
2013-01-20 08:24:00,36.0,36.0,29.19,South,180,4.0,6.0,100,0.00,,,0.00,Weather View 32 v70,2013-01-20 13:24:00,
2013-01-20 08:29:00,38.0,38.0,29.17,SW,225,6.0,9.0,100,0.00,,,0.00,Weather View 32 v70,2013-01-20 13:29:00,
2013-01-20 08:34:00,39.0,38.5,29.20,SSW,202,6.0,9.0,98,0.00,,,0.00,Weather View 32 v70,2013-01-20 13:34:00,
2013-01-20 08:39:00,40.0,38.7,29.20,SSW,202,7.0,12.0,95,0.00,,,0.00,Weather View 32 v70,2013-01-20 13:39:00,
2013-01-20 08:44:00,41.0,39.1,29.21,SW,225,10.0,12.0,93,0.00,,,0.00,Weather View 32 v70,2013-01-20 13:44:00,
2013-01-20 08:49:00,42.0,39.6,29.21,SW,225,10.0,20.0,91,0.00,,,0.00,Weather View 32 v70,2013-01-20 13:49:00,
2013-01-20 08:54:00,42.0,39.3,29.21,SSW,202,12.0,20.0,90,0.00,,,0.00,Weather View 32 v70,2013-01-20 13:54:00,
2013-01-20 08:59:00,42.0,39.3,29.21,SW,225,7.0,20.0,90,0.00,,,0.00,Weather View 32 v70,2013-01-20 13:59:00,
2013-01-20 09:04:00,42.0,39.3,29.21,South,180,14.0,20.0,90,0.00,,,0.00,Weather View 32 v70,2013-01-20 14:04:00,
2013-01-20 09:09:00,43.0,40.3,29.20,SSW,202,12.0,20.0,90,0.00,,,0.00,Weather View 32 v70,2013-01-20 14:09:00,
2013-01-20 09:14:00,43.0,40.0,29.20,West,270,4.0,20.0,89,0.01,,,0.01,Weather View 32 v70,2013-01-20 14:14:00,
2013-01-20 09:19:00,43.0,40.0,29.20,SSW,202,10.0,20.0,89,0.03,,,0.03,Weather View 32 v70,2013-01-20 14:19:00,
2013-01-20 09:24:00,44.0,40.4,29.20,SW,225,4.0,20.0,87,0.03,,,0.03,Weather View 32 v70,2013-01-20 14:24:00,
2013-01-20 09:29:00,44.0,40.4,29.21,SW,225,5.0,20.0,87,0.05,,,0.05,Weather View 32 v70,2013-01-20 14:29:00,
2013-01-20 09:34:00,44.0,40.1,29.21,WSW,247,5.0,20.0,86,0.05,,,0.05,Weather View 32 v70,2013-01-20 14:34:00,
2013-01-20 09:39:00,44.0,40.1,29.20,South,180,5.0,22.0,86,0.05,,,0.05,Weather View 32 v70,2013-01-20 14:39:00,
2013-01-20 09:44:00,44.0,39.8,29.21,SSW,202,9.0,23.0,85,0.07,,,0.07,Weather View 32 v70,2013-01-20 14:44:00,
2013-01-20 09:49:00,44.0,39.5,29.20,South,180,13.0,23.0,84,0.07,,,0.07,Weather View 32 v70,2013-01-20 14:49:00,
2013-01-20 09:54:00,44.0,39.5,29.20,SW,225,15.0,23.0,84,0.07,,,0.07,Weather View 32 v70,2013-01-20 14:54:00,
2013-01-20 09:59:00,45.0,39.8,29.19,SSW,202,23.0,23.0,82,0.07,,,0.07,Weather View 32 v70,2013-01-20 14:59:00,
2013-01-20 10:04:00,45.0,39.5,29.19,SSW,202,9.0,25.0,81,0.07,,,0.07,Weather View 32 v70,2013-01-20 15:04:00,
2013-01-20 10:09:00,45.0,39.5,29.19,SSE,157,15.0,25.0,81,0.07,,,0.07,Weather View 32 v70,2013-01-20 15:09:00,
2013-01-20 10:14:00,45.0,39.5,29.19,WSW,247,7.0,25.0,81,0.06,,,0.07,Weather View 32 v70,2013-01-20 15:14:00,
2013-01-20 10:19:00,45.0,38.9,29.18,SW,225,7.0,25.0,79,0.05,,,0.08,Weather View 32 v70,2013-01-20 15:19:00,
2013-01-20 10:24:00,45.0,38.9,29.18,SSW,202,12.0,25.0,79,0.05,,,0.08,Weather View 32 v70,2013-01-20 15:24:00,
2013-01-20 10:29:00,46.0,39.8,29.18,SW,225,15.0,25.0,79,0.03,,,0.08,Weather View 32 v70,2013-01-20 15:29:00,
2013-01-20 10:34:00,46.0,39.5,29.18,SW,225,16.0,25.0,78,0.03,,,0.08,Weather View 32 v70,2013-01-20 15:34:00,
2013-01-20 10:39:00,46.0,39.2,29.17,SW,225,13.0,25.0,77,0.03,,,0.08,Weather View 32 v70,2013-01-20 15:39:00,
2013-01-20 10:44:00,46.0,39.2,29.17,SW,225,14.0,25.0,77,0.01,,,0.08,Weather View 32 v70,2013-01-20 15:44:00,
2013-01-20 10:49:00,46.0,38.5,29.17,SW,225,12.0,25.0,75,0.01,,,0.08,Weather View 32 v70,2013-01-20 15:49:00,
2013-01-20 10:54:00,46.0,38.2,29.16,WSW,247,9.0,25.0,74,0.01,,,0.08,Weather View 32 v70,2013-01-20 15:54:00,
2013-01-20 10:59:00,46.0,37.8,29.16,WSW,247,7.0,25.0,73,0.01,,,0.08,Weather View 32 v70,2013-01-20 15:59:00,
2013-01-20 11:04:00,47.0,38.4,29.16,South,180,10.0,26.0,72,0.01,,,0.08,Weather View 32 v70,2013-01-20 16:04:00,
2013-01-20 11:09:00,47.0,38.1,29.15,WSW,247,13.0,28.0,71,0.01,,,0.08,Weather View 32 v70,2013-01-20 16:09:00,
2013-01-20 11:14:00,47.0,37.3,29.16,West,270,4.0,29.0,69,0.03,,,0.10,Weather View 32 v70,2013-01-20 16:14:00,
2013-01-20 11:19:00,48.0,38.3,29.15,WSW,247,8.0,29.0,69,0.02,,,0.10,Weather View 32 v70,2013-01-20 16:19:00,
2013-01-20 11:24:00,48.0,37.9,29.15,WSW,247,7.0,29.0,68,0.02,,,0.10,Weather View 32 v70,2013-01-20 16:24:00,
2013-01-20 11:29:00,48.0,37.5,29.15,WSW,247,16.0,29.0,67,0.02,,,0.10,Weather View 32 v70,2013-01-20 16:29:00,
2013-01-20 11:34:00,48.0,37.2,29.15,WSW,247,22.0,29.0,66,0.02,,,0.10,Weather View 32 v70,2013-01-20 16:34:00,
2013-01-20 11:39:00,49.0,37.3,29.15,West,270,9.0,29.0,64,0.02,,,0.10,Weather View 32 v70,2013-01-20 16:39:00,
2013-01-20 11:44:00,48.0,36.0,29.15,WSW,247,10.0,29.0,63,0.02,,,0.10,Weather View 32 v70,2013-01-20 16:44:00,
2013-01-20 11:49:00,48.0,35.6,29.15,North,360,5.0,29.0,62,0.02,,,0.10,Weather View 32 v70,2013-01-20 16:49:00,
2013-01-20 11:54:00,48.0,36.0,29.15,WSW,247,15.0,29.0,63,0.02,,,0.10,Weather View 32 v70,2013-01-20 16:54:00,
2013-01-20 11:59:00,48.0,36.0,29.15,SSW,202,7.0,29.0,63,0.02,,,0.10,Weather View 32 v70,2013-01-20 16:59:00,
2013-01-20 12:04:00,48.0,36.0,29.16,WSW,247,7.0,29.0,63,0.02,,,0.10,Weather View 32 v70,2013-01-20 17:04:00,
2013-01-20 12:09:00,48.0,35.6,29.16,WSW,247,14.0,29.0,62,0.02,,,0.10,Weather View 32 v70,2013-01-20 17:09:00,
2013-01-20 12:14:00,48.0,36.0,29.14,SW,225,7.0,29.0,63,0.00,,,0.10,Weather View 32 v70,2013-01-20 17:14:00,
2013-01-20 12:19:00,47.0,35.4,29.14,SSE,157,6.0,29.0,64,0.00,,,0.10,Weather View 32 v70,2013-01-20 17:19:00,
2013-01-20 12:24:00,47.0,35.4,29.13,WSW,247,5.0,29.0,64,0.00,,,0.10,Weather View 32 v70,2013-01-20 17:24:00,
2013-01-20 12:29:00,47.0,35.4,29.13,WNW,292,12.0,28.0,64,0.00,,,0.10,Weather View 32 v70,2013-01-20 17:29:00,
2013-01-20 12:34:00,47.0,35.4,29.12,WNW,292,4.0,28.0,64,0.00,,,0.10,Weather View 32 v70,2013-01-20 17:34:00,
2013-01-20 12:39:00,47.0,35.4,29.13,WSW,247,10.0,28.0,64,0.00,,,0.10,Weather View 32 v70,2013-01-20 17:39:00,
2013-01-20 12:44:00,47.0,35.0,29.13,South,180,1.0,27.0,63,0.00,,,0.10,Weather View 32 v70,2013-01-20 17:44:00,
2013-01-20 12:49:00,46.0,34.5,29.13,NNW,337,9.0,27.0,64,0.00,,,0.10,Weather View 32 v70,2013-01-20 17:49:00,
2013-01-20 12:54:00,46.0,34.5,29.13,SSW,202,6.0,26.0,64,0.00,,,0.10,Weather View 32 v70,2013-01-20 17:54:00,
2013-01-20 12:59:00,47.0,35.0,29.12,ENE,67,2.0,26.0,63,0.00,,,0.10,Weather View 32 v70,2013-01-20 17:59:00,
2013-01-20 13:04:00,46.0,34.5,29.13,SW,225,14.0,26.0,64,0.00,,,0.10,Weather View 32 v70,2013-01-20 18:04:00,
2013-01-20 13:09:00,47.0,35.0,29.13,SSW,202,6.0,26.0,63,0.00,,,0.10,Weather View 32 v70,2013-01-20 18:09:00,
2013-01-20 13:14:00,47.0,35.0,29.13,West,270,13.0,26.0,63,0.00,,,0.10,Weather View 32 v70,2013-01-20 18:14:00,
2013-01-20 13:19:00,47.0,34.6,29.13,West,270,11.0,26.0,62,0.00,,,0.10,Weather View 32 v70,2013-01-20 18:19:00,
2013-01-20 13:24:00,47.0,34.2,29.13,WNW,292,3.0,26.0,61,0.00,,,0.10,Weather View 32 v70,2013-01-20 18:24:00,
2013-01-20 13:29:00,47.0,34.2,29.11,South,180,11.0,26.0,61,0.00,,,0.10,Weather View 32 v70,2013-01-20 18:29:00,
2013-01-20 13:34:00,47.0,34.2,29.13,WSW,247,6.0,26.0,61,0.00,,,0.10,Weather View 32 v70,2013-01-20 18:34:00,
2013-01-20 13:39:00,47.0,33.8,29.13,WNW,292,4.0,26.0,60,0.00,,,0.10,Weather View 32 v70,2013-01-20 18:39:00,
2013-01-20 13:44:00,47.0,33.8,29.13,SSW,202,11.0,26.0,60,0.00,,,0.10,Weather View 32 v70,2013-01-20 18:44:00,
2013-01-20 13:49:00,47.0,33.8,29.14,WNW,292,6.0,26.0,60,0.00,,,0.10,Weather View 32 v70,2013-01-20 18:49:00,
2013-01-20 13:54:00,47.0,33.8,29.14,SE,135,2.0,26.0,60,0.00,,,0.10,Weather View 32 v70,2013-01-20 18:54:00,
2013-01-20 13:59:00,46.0,32.9,29.13,South,180,2.0,26.0,60,0.00,,,0.10,Weather View 32 v70,2013-01-20 18:59:00,
2013-01-20 14:04:00,46.0,32.9,29.14,SW,225,3.0,23.0,60,0.00,,,0.10,Weather View 32 v70,2013-01-20 19:04:00,
2013-01-20 14:09:00,46.0,32.9,29.14,WNW,292,7.0,18.0,60,0.00,,,0.10,Weather View 32 v70,2013-01-20 19:09:00,
2013-01-20 14:14:00,46.0,32.9,29.14,WNW,292,5.0,18.0,60,0.00,,,0.10,Weather View 32 v70,2013-01-20 19:14:00,
2013-01-20 14:19:00,46.0,32.9,29.14,West,270,0.0,18.0,60,0.00,,,0.10,Weather View 32 v70,2013-01-20 19:19:00,
2013-01-20 14:24:00,46.0,32.0,29.14,East,90,3.0,18.0,58,0.00,,,0.10,Weather View 32 v70,2013-01-20 19:24:00,
2013-01-20 14:29:00,46.0,32.0,29.15,West,270,3.0,18.0,58,0.00,,,0.10,Weather View 32 v70,2013-01-20 19:29:00,
2013-01-20 14:34:00,46.0,31.6,29.15,WSW,247,5.0,18.0,57,0.00,,,0.10,Weather View 32 v70,2013-01-20 19:34:00,
2013-01-20 14:39:00,46.0,31.2,29.15,SSW,202,3.0,18.0,56,0.00,,,0.10,Weather View 32 v70,2013-01-20 19:39:00,
2013-01-20 14:44:00,46.0,30.7,29.14,WSW,247,3.0,19.0,55,0.00,,,0.10,Weather View 32 v70,2013-01-20 19:44:00,
2013-01-20 14:49:00,46.0,30.7,29.14,SSW,202,3.0,19.0,55,0.00,,,0.10,Weather View 32 v70,2013-01-20 19:49:00,
2013-01-20 14:54:00,46.0,30.7,29.14,ESE,112,2.0,19.0,55,0.00,,,0.10,Weather View 32 v70,2013-01-20 19:54:00,
2013-01-20 14:59:00,46.0,30.3,29.15,WSW,247,10.0,19.0,54,0.00,,,0.10,Weather View 32 v70,2013-01-20 19:59:00,
2013-01-20 15:04:00,46.0,29.8,29.15,SSW,202,3.0,19.0,53,0.00,,,0.10,Weather View 32 v70,2013-01-20 20:04:00,
2013-01-20 15:09:00,46.0,29.3,29.16,NNW,337,2.0,19.0,52,0.00,,,0.10,Weather View 32 v70,2013-01-20 20:09:00,
2013-01-20 15:14:00,45.0,27.9,29.15,West,270,8.0,19.0,51,0.00,,,0.10,Weather View 32 v70,2013-01-20 20:14:00,
2013-01-20 15:19:00,45.0,27.9,29.15,East,90,1.0,19.0,51,0.00,,,0.10,Weather View 32 v70,2013-01-20 20:19:00,
2013-01-20 15:24:00,45.0,28.4,29.14,NE,45,2.0,19.0,52,0.00,,,0.10,Weather View 32 v70,2013-01-20 20:24:00,
2013-01-20 15:29:00,45.0,27.9,29.15,West,270,2.0,19.0,51,0.00,,,0.10,Weather View 32 v70,2013-01-20 20:29:00,
2013-01-20 15:34:00,45.0,28.4,29.14,NNW,337,3.0,19.0,52,0.00,,,0.10,Weather View 32 v70,2013-01-20 20:34:00,
2013-01-20 15:39:00,45.0,27.9,29.14,ESE,112,2.0,19.0,51,0.00,,,0.10,Weather View 32 v70,2013-01-20 20:39:00,
2013-01-20 15:44:00,45.0,26.5,29.14,SSW,202,16.0,17.0,48,0.00,,,0.10,Weather View 32 v70,2013-01-20 20:44:00,
2013-01-20 15:49:00,45.0,26.5,29.15,West,270,12.0,18.0,48,0.00,,,0.10,Weather View 32 v70,2013-01-20 20:49:00,
2013-01-20 15:54:00,44.0,25.5,29.15,SW,225,7.0,18.0,48,0.00,,,0.10,Weather View 32 v70,2013-01-20 20:54:00,
2013-01-20 15:59:00,44.0,25.5,29.15,ESE,112,5.0,18.0,48,0.00,,,0.10,Weather View 32 v70,2013-01-20 20:59:00,
2013-01-20 16:04:00,44.0,25.5,29.13,South,180,7.0,21.0,48,0.00,,,0.10,Weather View 32 v70,2013-01-20 21:04:00,
2013-01-20 16:09:00,44.0,27.5,29.16,NW,315,13.0,26.0,52,0.00,,,0.10,Weather View 32 v70,2013-01-20 21:09:00,
2013-01-20 16:14:00,43.0,27.9,29.17,West,270,7.0,26.0,55,0.00,,,0.10,Weather View 32 v70,2013-01-20 21:14:00,
2013-01-20 16:19:00,42.0,27.4,29.17,NW,315,13.0,26.0,56,0.00,,,0.10,Weather View 32 v70,2013-01-20 21:19:00,
2013-01-20 16:24:00,42.0,27.0,29.16,NW,315,13.0,26.0,55,0.00,,,0.10,Weather View 32 v70,2013-01-20 21:24:00,
2013-01-20 16:29:00,42.0,26.5,29.17,NW,315,13.0,26.0,54,0.00,,,0.10,Weather View 32 v70,2013-01-20 21:29:00,
2013-01-20 16:34:00,42.0,27.4,29.17,WNW,292,9.0,26.0,56,0.00,,,0.10,Weather View 32 v70,2013-01-20 21:34:00,
2013-01-20 16:39:00,41.0,26.5,29.17,NW,315,12.0,26.0,56,0.00,,,0.10,Weather View 32 v70,2013-01-20 21:39:00,
2013-01-20 16:44:00,41.0,26.5,29.17,WSW,247,2.0,26.0,56,0.00,,,0.10,Weather View 32 v70,2013-01-20 21:44:00,
2013-01-20 16:49:00,41.0,26.5,29.17,West,270,9.0,26.0,56,0.00,,,0.10,Weather View 32 v70,2013-01-20 21:49:00,
2013-01-20 16:54:00,41.0,26.5,29.17,West,270,5.0,26.0,56,0.00,,,0.10,Weather View 32 v70,2013-01-20 21:54:00,
2013-01-20 16:59:00,41.0,26.5,29.17,West,270,4.0,26.0,56,0.00,,,0.10,Weather View 32 v70,2013-01-20 21:59:00,
2013-01-20 17:04:00,41.0,26.0,29.17,SSW,202,3.0,26.0,55,0.00,,,0.10,Weather View 32 v70,2013-01-20 22:04:00,
2013-01-20 17:09:00,41.0,26.0,29.17,West,270,6.0,24.0,55,0.00,,,0.10,Weather View 32 v70,2013-01-20 22:09:00,
2013-01-20 17:14:00,40.0,25.5,29.17,NW,315,6.0,24.0,56,0.00,,,0.10,Weather View 32 v70,2013-01-20 22:14:00,
2013-01-20 17:19:00,40.0,25.1,29.17,SW,225,1.0,24.0,55,0.00,,,0.10,Weather View 32 v70,2013-01-20 22:19:00,
2013-01-20 17:24:00,40.0,25.1,29.18,West,270,6.0,24.0,55,0.00,,,0.10,Weather View 32 v70,2013-01-20 22:24:00,
2013-01-20 17:29:00,40.0,25.1,29.18,WNW,292,7.0,22.0,55,0.00,,,0.10,Weather View 32 v70,2013-01-20 22:29:00,
2013-01-20 17:34:00,40.0,23.8,29.18,NNW,337,4.0,22.0,52,0.00,,,0.10,Weather View 32 v70,2013-01-20 22:34:00,
2013-01-20 17:39:00,40.0,23.8,29.18,NW,315,6.0,22.0,52,0.00,,,0.10,Weather View 32 v70,2013-01-20 22:39:00,
2013-01-20 17:44:00,40.0,23.3,29.19,West,270,1.0,22.0,51,0.00,,,0.10,Weather View 32 v70,2013-01-20 22:44:00,
2013-01-20 17:49:00,40.0,23.3,29.19,WNW,292,6.0,22.0,51,0.00,,,0.10,Weather View 32 v70,2013-01-20 22:49:00,
2013-01-20 17:54:00,40.0,22.4,29.19,NW,315,10.0,19.0,49,0.00,,,0.10,Weather View 32 v70,2013-01-20 22:54:00,
2013-01-20 17:59:00,40.0,21.9,29.19,NW,315,11.0,19.0,48,0.00,,,0.10,Weather View 32 v70,2013-01-20 22:59:00,
2013-01-20 18:04:00,40.0,21.4,29.19,SE,135,3.0,19.0,47,0.00,,,0.10,Weather View 32 v70,2013-01-20 23:04:00,
2013-01-20 18:09:00,40.0,20.9,29.20,WNW,292,13.0,23.0,46,0.00,,,0.10,Weather View 32 v70,2013-01-20 23:09:00,
2013-01-20 18:14:00,39.0,20.5,29.19,WNW,292,10.0,23.0,47,0.00,,,0.10,Weather View 32 v70,2013-01-20 23:14:00,
2013-01-20 18:19:00,39.0,19.9,29.20,WNW,292,4.0,23.0,46,0.00,,,0.10,Weather View 32 v70,2013-01-20 23:19:00,
2013-01-20 18:24:00,39.0,19.9,29.20,North,360,6.0,23.0,46,0.00,,,0.10,Weather View 32 v70,2013-01-20 23:24:00,
2013-01-20 18:29:00,39.0,20.5,29.20,West,270,20.0,23.0,47,0.00,,,0.10,Weather View 32 v70,2013-01-20 23:29:00,
2013-01-20 18:34:00,39.0,18.9,29.20,SSW,202,2.0,23.0,44,0.00,,,0.10,Weather View 32 v70,2013-01-20 23:34:00,
2013-01-20 18:39:00,39.0,18.4,29.20,NW,315,2.0,23.0,43,0.00,,,0.10,Weather View 32 v70,2013-01-20 23:39:00,
2013-01-20 18:44:00,39.0,17.8,29.21,WNW,292,10.0,23.0,42,0.00,,,0.10,Weather View 32 v70,2013-01-20 23:44:00,
2013-01-20 18:49:00,39.0,17.3,29.21,North,360,5.0,23.0,41,0.00,,,0.10,Weather View 32 v70,2013-01-20 23:49:00,
2013-01-20 18:54:00,38.0,16.4,29.22,WNW,292,3.0,23.0,41,0.00,,,0.10,Weather View 32 v70,2013-01-20 23:54:00,
2013-01-20 18:59:00,38.0,16.4,29.22,West,270,10.0,23.0,41,0.00,,,0.10,Weather View 32 v70,2013-01-20 23:59:00,
2013-01-20 19:04:00,38.0,16.4,29.22,NW,315,7.0,23.0,41,0.00,,,0.10,Weather View 32 v70,2013-01-21 00:04:00,
2013-01-20 19:09:00,38.0,16.4,29.23,WSW,247,11.0,22.0,41,0.00,,,0.10,Weather View 32 v70,2013-01-21 00:09:00,
2013-01-20 19:14:00,37.0,16.0,29.23,NW,315,3.0,22.0,42,0.00,,,0.10,Weather View 32 v70,2013-01-21 00:14:00,
2013-01-20 19:19:00,37.0,16.0,29.23,WSW,247,6.0,22.0,42,0.00,,,0.10,Weather View 32 v70,2013-01-21 00:19:00,
2013-01-20 19:24:00,37.0,16.0,29.23,West,270,5.0,22.0,42,0.00,,,0.10,Weather View 32 v70,2013-01-21 00:24:00,
2013-01-20 19:29:00,37.0,16.0,29.23,WNW,292,9.0,22.0,42,0.00,,,0.10,Weather View 32 v70,2013-01-21 00:29:00,
2013-01-20 19:34:00,37.0,15.5,29.23,North,360,9.0,22.0,41,0.00,,,0.10,Weather View 32 v70,2013-01-21 00:34:00,
2013-01-20 19:39:00,36.0,14.0,29.23,West,270,17.0,23.0,40,0.00,,,0.10,Weather View 32 v70,2013-01-21 00:39:00,
2013-01-20 19:44:00,36.0,12.2,29.22,WNW,292,17.0,25.0,37,0.00,,,0.10,Weather View 32 v70,2013-01-21 00:44:00,
2013-01-20 19:49:00,36.0,11.0,29.23,WNW,292,15.0,29.0,35,0.00,,,0.10,Weather View 32 v70,2013-01-21 00:49:00,
2013-01-20 19:54:00,35.0,9.4,29.23,North,360,5.0,31.0,34,0.00,,,0.10,Weather View 32 v70,2013-01-21 00:54:00,
2013-01-20 19:59:00,35.0,10.1,29.25,North,360,13.0,31.0,35,0.00,,,0.10,Weather View 32 v70,2013-01-21 00:59:00,
2013-01-20 20:04:00,35.0,10.1,29.24,NW,315,11.0,31.0,35,0.00,,,0.10,Weather View 32 v70,2013-01-21 01:04:00,
2013-01-20 20:09:00,35.0,10.7,29.23,NNW,337,7.0,31.0,36,0.00,,,0.10,Weather View 32 v70,2013-01-21 01:09:00,
2013-01-20 20:14:00,35.0,10.1,29.24,NW,315,10.0,31.0,35,0.00,,,0.10,Weather View 32 v70,2013-01-21 01:14:00,
2013-01-20 20:19:00,35.0,10.7,29.24,NW,315,10.0,31.0,36,0.00,,,0.10,Weather View 32 v70,2013-01-21 01:19:00,
2013-01-20 20:24:00,34.0,10.4,29.24,NW,315,10.0,31.0,37,0.00,,,0.10,Weather View 32 v70,2013-01-21 01:24:00,
2013-01-20 20:29:00,34.0,10.4,29.24,South,180,4.0,31.0,37,0.00,,,0.10,Weather View 32 v70,2013-01-21 01:29:00,
2013-01-20 20:34:00,34.0,11.0,29.24,WNW,292,5.0,31.0,38,0.00,,,0.10,Weather View 32 v70,2013-01-21 01:34:00,
2013-01-20 20:39:00,33.0,10.7,29.24,SSW,202,4.0,31.0,39,0.00,,,0.10,Weather View 32 v70,2013-01-21 01:39:00,
2013-01-20 20:45:00,33.0,10.7,29.25,NW,315,6.0,31.0,39,-0.10,,,0.10,Weather View 32 v70,2013-01-21 01:45:00,
2013-01-20 20:50:00,33.0,10.7,29.25,West,270,4.0,31.0,39,-0.10,,,0.10,Weather View 32 v70,2013-01-21 01:50:00,
2013-01-20 20:55:00,33.0,9.5,29.25,ESE,112,6.0,31.0,37,-0.10,,,0.10,Weather View 32 v70,2013-01-21 01:55:00,
2013-01-20 21:00:00,33.0,8.9,29.23,NW,315,19.0,31.0,36,-0.10,,,0.10,Weather View 32 v70,2013-01-21 02:00:00,
2013-01-20 21:05:00,33.0,9.5,29.25,NNW,337,6.0,31.0,37,-0.10,,,0.10,Weather View 32 v70,2013-01-21 02:05:00,
2013-01-20 21:10:00,32.0,9.2,29.25,WNW,292,16.0,31.0,38,-0.10,,,0.10,Weather View 32 v70,2013-01-21 02:10:00,
2013-01-20 21:15:00,32.0,10.9,29.27,NW,315,10.0,30.0,41,-0.10,,,0.10,Weather View 32 v70,2013-01-21 02:15:00,
2013-01-20 21:20:00,32.0,11.5,29.28,WNW,292,9.0,30.0,42,-0.10,,,0.10,Weather View 32 v70,2013-01-21 02:20:00,
2013-01-20 21:25:00,31.0,12.6,29.27,NNE,22,9.0,30.0,46,-0.10,,,0.10,Weather View 32 v70,2013-01-21 02:25:00,
2013-01-20 21:30:00,31.0,16.3,29.29,WNW,292,13.0,30.0,54,-0.10,,,0.10,Weather View 32 v70,2013-01-21 02:30:00,
2013-01-20 21:35:00,30.0,16.2,29.29,WNW,292,8.0,30.0,56,-0.10,,,0.10,Weather View 32 v70,2013-01-21 02:35:00,
2013-01-20 21:40:00,29.0,13.6,29.28,SSW,202,7.0,30.0,52,-0.10,,,0.10,Weather View 32 v70,2013-01-21 02:40:00,
2013-01-20 21:45:00,29.0,11.8,29.28,NE,45,7.0,30.0,48,-0.10,,,0.10,Weather View 32 v70,2013-01-21 02:45:00,
2013-01-20 21:50:00,28.0,10.8,29.29,NNW,337,9.0,30.0,48,-0.10,,,0.10,Weather View 32 v70,2013-01-21 02:50:00,
2013-01-20 21:55:00,28.0,10.8,29.29,North,360,4.0,29.0,48,-0.10,,,0.10,Weather View 32 v70,2013-01-21 02:55:00,
2013-01-20 22:00:00,28.0,9.4,29.29,NNW,337,6.0,29.0,45,-0.10,,,0.10,Weather View 32 v70,2013-01-21 03:00:00,
2013-01-20 22:05:00,28.0,8.4,29.29,NW,315,10.0,29.0,43,-0.10,,,0.10,Weather View 32 v70,2013-01-21 03:05:00,
2013-01-20 22:10:00,28.0,7.9,29.28,NW,315,21.0,29.0,42,-0.10,,,0.10,Weather View 32 v70,2013-01-21 03:10:00,
2013-01-20 22:15:00,27.0,6.9,29.27,NW,315,19.0,29.0,42,-0.10,,,0.10,Weather View 32 v70,2013-01-21 03:15:00,
2013-01-20 22:20:00,27.0,6.9,29.30,WNW,292,11.0,29.0,42,-0.10,,,0.10,Weather View 32 v70,2013-01-21 03:20:00,
2013-01-20 22:25:00,27.0,6.9,29.31,WNW,292,9.0,29.0,42,-0.10,,,0.10,Weather View 32 v70,2013-01-21 03:25:00,
2013-01-20 22:30:00,27.0,6.4,29.31,NW,315,16.0,31.0,41,-0.10,,,0.10,Weather View 32 v70,2013-01-21 03:30:00,
2013-01-20 22:35:00,26.0,4.4,29.31,WNW,292,5.0,31.0,39,-0.10,,,0.10,Weather View 32 v70,2013-01-21 03:35:00,
2013-01-20 22:40:00,26.0,3.3,29.31,WSW,247,6.0,31.0,37,-0.10,,,0.10,Weather View 32 v70,2013-01-21 03:40:00,
2013-01-20 22:45:00,26.0,3.3,29.31,SSE,157,1.0,34.0,37,-0.10,,,0.10,Weather View 32 v70,2013-01-21 03:45:00,
2013-01-20 22:50:00,25.0,3.0,29.31,NW,315,16.0,34.0,38,-0.10,,,0.10,Weather View 32 v70,2013-01-21 03:50:00,
2013-01-20 22:55:00,25.0,3.5,29.30,NNW,337,13.0,34.0,39,0.00,,,0.10,Weather View 32 v70,2013-01-21 03:55:00,
2013-01-20 23:00:00,25.0,4.6,29.31,NNW,337,18.0,34.0,41,0.00,,,0.10,Weather View 32 v70,2013-01-21 04:00:00,
2013-01-20 23:05:00,25.0,4.1,29.31,NW,315,18.0,34.0,40,0.00,,,0.10,Weather View 32 v70,2013-01-21 04:05:00,
2013-01-20 23:10:00,24.0,3.7,29.31,NE,45,6.0,34.0,41,0.00,,,0.10,Weather View 32 v70,2013-01-21 04:10:00,
2013-01-20 23:15:00,24.0,3.2,29.31,North,360,22.0,34.0,40,0.00,,,0.10,Weather View 32 v70,2013-01-21 04:15:00,
2013-01-20 23:20:00,24.0,4.2,29.31,NW,315,19.0,34.0,42,0.00,,,0.10,Weather View 32 v70,2013-01-21 04:20:00,
2013-01-20 23:25:00,23.0,2.3,29.30,North,360,20.0,34.0,40,0.00,,,0.10,Weather View 32 v70,2013-01-21 04:25:00,
2013-01-20 23:30:00,23.0,3.3,29.31,NW,315,19.0,34.0,42,0.00,,,0.10,Weather View 32 v70,2013-01-21 04:30:00,
2013-01-20 23:35:00,23.0,3.3,29.31,North,360,2.0,34.0,42,0.00,,,0.10,Weather View 32 v70,2013-01-21 04:35:00,
2013-01-20 23:40:00,22.0,3.4,29.30,NNW,337,10.0,34.0,44,0.00,,,0.10,Weather View 32 v70,2013-01-21 04:40:00,
2013-01-20 23:45:00,22.0,3.4,29.31,WNW,292,16.0,31.0,44,0.00,,,0.10,Weather View 32 v70,2013-01-21 04:45:00,
2013-01-20 23:50:00,22.0,2.9,29.31,NNW,337,35.0,35.0,43,0.00,,,0.10,Weather View 32 v70,2013-01-21 04:50:00,
2013-01-20 23:55:00,22.0,2.9,29.29,WNW,292,26.0,35.0,43,0.00,,,0.10,Weather View 32 v70,2013-01-21 04:55:00,